TimeCDT,TemperatureF,Dew PointF,Humidity,Sea Level PressureIn,VisibilityMPH,Wind Direction,Wind SpeedMPH,Gust SpeedMPH,PrecipitationIn,Events,Conditions,WindDirDegrees,DateUTC
12:53 AM,64.0,57.9,80,30.02,10.0,Calm,Calm,-,N/A,,Clear,0,2013-08-16 05:53:00
1:53 AM,62.1,57.9,86,30.01,10.0,Calm,Calm,-,N/A,,Clear,0,2013-08-16 06:53:00
2:53 AM,61.0,57.9,90,30.01,10.0,Calm,Calm,-,N/A,,Clear,0,2013-08-16 07:53:00
3:53 AM,59.0,57.0,93,30.01,10.0,NNW,3.5,-,N/A,,Clear,340,2013-08-16 08:53:00
4:53 AM,57.9,55.9,93,30.01,10.0,Calm,Calm,-,N/A,,Clear,0,2013-08-16 09:53:00
5:53 AM,57.0,55.0,93,30.02,10.0,Calm,Calm,-,N/A,,Clear,0,2013-08-16 10:53:00
6:53 AM,59.0,55.9,90,30.03,10.0,Calm,Calm,-,N/A,,Clear,0,2013-08-16 11:53:00
7:53 AM,64.0,57.9,80,30.03,10.0,NNW,3.5,-,N/A,,Clear,330,2013-08-16 12:53:00
8:53 AM,70.0,59.0,68,30.04,10.0,Variable,3.5,-,N/A,,Clear,0,2013-08-16 13:53:00
9:53 AM,73.9,59.0,59,30.04,10.0,North,3.5,-,N/A,,Clear,10,2013-08-16 14:53:00
10:53 AM,78.1,59.0,52,30.05,10.0,Variable,3.5,-,N/A,,Clear,0,2013-08-16 15:53:00
11:53 AM,79.0,59.0,50,30.04,10.0,Variable,5.8,-,N/A,,Clear,0,2013-08-16 16:53:00
12:53 PM,82.9,57.0,41,30.03,10.0,East,9.2,16.1,0.00,Rain,Light Rain,80,2013-08-16 17:53:00
1:53 PM,82.0,59.0,45,30.02,10.0,NE,8.1,-,0.00,,Mostly Cloudy,40,2013-08-16 18:53:00
2:53 PM,81.0,59.0,47,30.00,10.0,ENE,6.9,-,N/A,,Partly Cloudy,70,2013-08-16 19:53:00
3:53 PM,81.0,61.0,50,30.01,10.0,North,5.8,-,N/A,,Scattered Clouds,10,2013-08-16 20:53:00
4:53 PM,79.0,62.1,56,30.01,10.0,NNW,6.9,-,N/A,,Partly Cloudy,330,2013-08-16 21:53:00
5:53 PM,77.0,63.0,62,30.01,10.0,Variable,3.5,-,N/A,,Clear,0,2013-08-16 22:53:00
6:53 PM,73.9,62.1,66,30.01,10.0,Variable,4.6,-,N/A,,Clear,0,2013-08-16 23:53:00
7:53 PM,72.0,62.1,71,30.03,10.0,Variable,3.5,-,N/A,,Clear,0,2013-08-17 00:53:00
8:53 PM,70.0,62.1,76,30.04,10.0,Variable,3.5,-,N/A,,Scattered Clouds,0,2013-08-17 01:53:00
9:53 PM,70.0,62.1,76,30.04,10.0,Variable,3.5,-,N/A,,Partly Cloudy,0,2013-08-17 02:53:00
10:53 PM,70.0,62.1,76,30.05,10.0,Variable,3.5,-,N/A,,Overcast,0,2013-08-17 03:53:00
11:53 PM,70.0,63.0,78,30.04,10.0,Variable,3.5,-,N/A,,Clear,0,2013-08-17 04:53:00